Weather in Voskresenskoye

Russia / Ivanovo Oblast     56°41′58″N   40°57′56″E
temp.,
°C
wind,
m/s
gust,
m/s
humid.,
%
clouds,
%
prec.,
mm/h
press.,
hPa
HPBL,
m
6 march, sat
sat600:00−14wnw22900 0.0 101320
03:00−15wsw23890 0.0 101542
06:00−15wsw259651 0.0 101495
09:00−12wnw259360 0.0 1015255
12:00−8nw237663 0.0 1015624
15:00−7wnw347868 0.1 1014937
18:00−11w229066 0.1 101321
21:00−13sw229433 0.1 101320
7 march, sun
sun700:00−14ssw23940 0.0 101171
03:00−13ssw410930 0.0 1009227
06:00−10ssw5148868 0.0 1005447
09:00−8ssw6129384 0.6 1001728
12:00−6ssw61292100 1.5 9971017
15:00−4s61193100 2.9 9921022
18:00−4s51195100 1.4 988821
21:00−6w71493100 3.1 988815
8 march, mon
mon800:00−7wnw71392100 2.4 9891048
03:00−9w51283100 2.6 991449
06:00−12w3889100 0.0 991244
09:00−12w3792100 0.0 992277
12:00−8wnw4790100 0.2 994499
15:00−5nw4792100 0.6 996649
18:00−8nnw4992100 0.4 999651
21:00−11nnw399399 0.5 1003474
9 march, tue
tue900:00−12nw499494 0.1 1005507
03:00−13nw399496 0.1 1008380
06:00−15nnw499397 0.1 1010444
09:00−17nw479398 0.1 1012372
12:00−15nw4688100 0.0 1014497
15:00−13nw4686100 0.1 1015610
18:00−17nw2594100 0.0 1016135
21:00−21nw239669 0.0 101844
10 march, wed
wed1000:00−23nw229946 0.0 101820
03:00−25nw229924 0.0 101819
06:00−26nnw22990 0.0 101919
09:00−22n23956 0.0 1019203
12:00−17nne228386 0.0 1019479
15:00−14n127792 0.0 1018665
18:00−19ene129198 0.0 101820
21:00−22e129571 0.0 101820